Weather History for Berlin, NH

Change the Weather History Date:

Sunday, October 20, 2013

  Actual Average Record
Temperature  
Mean Temperature 49 °F -  
Max Temperature 57 °F 50 °F 72 °F (2012)
Min Temperature 35 °F 26 °F 15 °F (2003)
Degree Days  
Heating Degree Days 16    
Moisture  
Dew Point 35 °F    
Average Humidity 60    
Maximum Humidity 93    
Minimum Humidity 35    
Precipitation  
Precipitation 0.05 in - - ()
Sea Level Pressure  
Sea Level Pressure 29.77 in    
Wind  
Wind Speed 5 mph (West)    
Max Wind Speed 12 mph    
Max Gust Speed 26 mph    
Visibility 10 miles    
Events Rain    
Averages and records for this station are not official NWS values.
T = Trace of Precipitation, MM = Missing Value Source: NWS Daily Summary

Daily Weather History Graph

Daily Weather History Graph

Search for Another Location

Airport:

Trip Planner

Search our weather history database for the weather conditions in past years. The results will help you decide how hot, cold, wet, or windy it might be!

Date:

Astronomy

Oct. 20, 2013 Rise Set
Actual Time 7:06 AM EDT 5:51 PM EDT
Civil Twilight 6:37 AM EDT 6:21 PM EDT
Nautical Twilight 6:03 AM EDT 6:54 PM EDT
Astronomical Twilight 5:29 AM EDT 7:28 PM EDT
Moon 6:53 PM EDT (10/20) 8:45 AM EDT (10/20)
Length of Visible Light 11h 44m
Length of Day
10h 44m
Full, 97% of the Moon is Illuminated
Oct 20
Full
Oct 26
Last Quarter
Nov 3
New
Nov 10
First Quarter
Nov 17
Full

Hourly Weather History & Observations

Time (EDT) Temp. Windchill Dew Point Humidity Pressure Visibility Wind Dir Wind Speed Gust Speed Precip Events Conditions
12:52 AM 48.9 °F - 45.0 °F 86% 29.68 in 10.0 mi Calm Calm - 0.00 in Rain Light Rain
1:52 AM 51.1 °F - 43.0 °F 74% 29.66 in 10.0 mi Calm Calm - 0.00 in Rain Light Rain
2:52 AM 52.0 °F - 44.1 °F 74% 29.64 in 10.0 mi South 9.2 mph - 0.00 in   Overcast
3:52 AM 51.1 °F - 44.1 °F 77% 29.63 in 10.0 mi SE 3.5 mph - N/A   Overcast
4:52 AM 51.1 °F - 44.1 °F 77% 29.63 in 8.0 mi WSW 3.5 mph - 0.00 in Rain Light Rain
5:52 AM 46.9 °F - 45.0 °F 93% 29.65 in 10.0 mi SW 5.8 mph - 0.04 in   Overcast
6:52 AM 48.0 °F - 44.1 °F 86% 29.68 in 10.0 mi SW 5.8 mph - 0.01 in   Overcast
7:52 AM 48.0 °F - 41.0 °F 77% 29.70 in 10.0 mi WNW 6.9 mph - 0.00 in Rain Light Rain
8:52 AM 48.9 °F - 39.0 °F 69% 29.72 in 10.0 mi Variable 4.6 mph - 0.00 in   Partly Cloudy
9:52 AM 52.0 °F - 37.0 °F 57% 29.73 in 10.0 mi WSW 9.2 mph 18.4 mph N/A   Mostly Cloudy
10:52 AM 52.0 °F - 35.1 °F 53% 29.75 in 10.0 mi Variable 6.9 mph 23.0 mph N/A   Partly Cloudy
11:52 AM 54.0 °F - 27.0 °F 35% 29.76 in 10.0 mi Variable 5.8 mph 24.2 mph N/A   Clear
12:52 PM 53.1 °F - 28.0 °F 38% 29.77 in 10.0 mi WNW 9.2 mph 19.6 mph N/A   Partly Cloudy
1:52 PM 53.1 °F - 30.0 °F 41% 29.78 in 10.0 mi West 10.4 mph 21.9 mph N/A   Clear
2:52 PM 54.0 °F - 28.9 °F 38% 29.78 in 10.0 mi West 11.5 mph 19.6 mph N/A   Scattered Clouds
3:52 PM 55.0 °F - 28.0 °F 35% 29.80 in 10.0 mi WNW 9.2 mph 26.5 mph N/A   Partly Cloudy
4:52 PM 53.1 °F - 27.0 °F 37% 29.82 in 10.0 mi West 10.4 mph 18.4 mph N/A   Partly Cloudy
5:52 PM 51.1 °F - 26.1 °F 38% 29.85 in 10.0 mi Variable 4.6 mph 18.4 mph N/A   Clear
6:52 PM 48.9 °F - 28.0 °F 44% 29.87 in 10.0 mi West 5.8 mph - N/A   Clear
7:52 PM 48.0 °F - 30.0 °F 50% 29.89 in 10.0 mi WNW 4.6 mph - N/A   Clear
8:52 PM 46.0 °F 44.8 °F 30.0 °F 54% 29.91 in 10.0 mi Variable 3.5 mph - N/A   Clear
9:52 PM 45.0 °F - 30.0 °F 56% 29.93 in 10.0 mi Calm Calm - N/A   Clear
10:52 PM 43.0 °F 41.3 °F 30.0 °F 60% 29.94 in 10.0 mi North 3.5 mph - N/A   Clear
11:52 PM 35.1 °F - 30.9 °F 85% 29.97 in 10.0 mi Calm Calm - N/A   Partly Cloudy